map of DLM home
DLM - Airport
Location
City:  Dalaman, Mugla, Turkey
ICAO:LTBS
IATA:DLM

Details
Type:Airport (Aerodrome, Airfield)
Use:Public/Civil, International (customs port of entry)
Latitude:3642'47"N (36.713056)
Longitude:2847'33"E (28.792500)
Datum:WGS 1984
Elevation:20 ft (6 m)
Variation:4.87E (WMM2015 magnetic declination)
0.09 annual change
Runways:1
Longest:9842 × 148 ft (3000 × 45 m), paved

Time
Time Zone:UTC+3
Local Time:

Weather
METAR:LTBS 190250Z 02005KT CAVOK 11/07 Q1017 NOSIG RMK RWY19 34005KT

Related Locations
Nearby:
Farthest:RVV: 11522 mi / 18543 km
Raivavae, Tubuai Islands, Austral Islands, PF

Find:

   beyond  
but within

Other Information
Maps:
NOTAMs:
Links:
Sources:

  
flag of Turkey   

Sectional Chart

Flight Planning
at skyvector.com

Satellite Image

Google Maps Satellite view

 

Copyright © 2004-2017 Karl L. Swartz. All rights reserved.
The Great Circle Mapper name and logo are trademarks of the Great Circle Mapper.
All other trademarks mentioned herein belong to their respective owners.
Please see credits for attibutions and further copyright information.

  Follow gcmap on Facebook Follow gcmap on Twitter Follow gcmap on Google+ GCmap on LinkedIn

hCard Microformat

Geo Microformat